This is the latest recevied weather packets stored in our database for station/object N4RCT. If no packets are shown the sender has not sent any weather packets the latest 10 day(s).
| Time | Temp. | Humidity | Pressure | Rain* | Wind** | Luminosity | Snow |
|---|---|---|---|---|---|---|---|
| 1777677417 | 16.67° C | 80% | 1011.8 hPa | 0 mm | - | 24 W/m² | - |
| 1777677115 | 16.67° C | 80% | 1011.9 hPa | 0 mm | - | 24 W/m² | - |
| 1777676813 | 16.67° C | 75% | 1012 hPa | 0 mm | - | 29 W/m² | - |
| 1777676511 | 17.22° C | 72% | 1011.9 hPa | 0 mm | - | 32 W/m² | - |
| 1777676209 | 17.78° C | 72% | 1011.9 hPa | 0 mm | - | 44 W/m² | - |
| 1777675905 | 17.78° C | 70% | 1012 hPa | 0 mm | - | 51 W/m² | - |
| 1777675601 | 17.78° C | 71% | 1012.1 hPa | 0 mm | - | 49 W/m² | - |
| 1777675299 | 17.78° C | 72% | 1012 hPa | 0 mm | - | 56 W/m² | - |
| 1777674995 | 18.33° C | 69% | 1011.5 hPa | 0 mm | - | 77 W/m² | - |
| 1777674692 | 18.33° C | 70% | 1011.4 hPa | 0 mm | - | 85 W/m² | - |
| 1777674389 | 18.33° C | 66% | 1011.5 hPa | 0 mm | - | 84 W/m² | - |
| 1777674086 | 18.33° C | 66% | 1011.4 hPa | 0 mm | - | 90 W/m² | - |
| 1777673782 | 18.33° C | 68% | 1011.4 hPa | 0 mm | - | 109 W/m² | - |
| 1777673479 | 18.89° C | 63% | 1011.3 hPa | 0 mm | - | 105 W/m² | - |
| 1777673177 | 18.89° C | 65% | 1011.1 hPa | 0 mm | - | 108 W/m² | - |
| 1777672874 | 18.89° C | 67% | 1011.1 hPa | 0 mm | - | 118 W/m² | - |
| 1777672571 | 18.89° C | 68% | 1011.4 hPa | 0 mm | - | 130 W/m² | - |
| 1777672265 | 18.89° C | 62% | 1011.3 hPa | 0 mm | - | 134 W/m² | - |
| 1777671961 | 18.89° C | 64% | 1011.4 hPa | 0 mm | - | 140 W/m² | - |
| 1777671656 | 18.89° C | 67% | 1011.7 hPa | 0 mm | - | 143 W/m² | - |
| 1777671353 | 18.89° C | 67% | 1011.7 hPa | 0 mm | - | 139 W/m² | - |
| 1777671050 | 18.89° C | 68% | 1011.8 hPa | 0 mm | - | 148 W/m² | - |
| 1777670746 | 18.89° C | 65% | 1012 hPa | 0 mm | - | 153 W/m² | - |
| 1777670443 | 18.89° C | 66% | 1012.1 hPa | 0 mm | - | 163 W/m² | - |
| 1777670140 | 18.89° C | 66% | 1012.2 hPa | 0 mm | - | 170 W/m² | - |
* Rain latest hour (hover to see other rain measurements)
** Current wind speed in m/s (hover to see current wind gust speed)